JST93Z YMML-YSSY

Flight info

Callsign JST93Z
Flight time 0h 59m
Altitude 35000
Route DOSEL2/34 DOSEL Y59 RIVET
Aircraft A20N/M-SDE2E3FGHIRWXY/LB1

Departure

Time 2026-05-01 13:10
Airport Melbourne Airport (YMML)

Arrival

Time 2026-05-01 14:09
Airport Sydney Kingsford Smith International Airport (YSSY)
Time Latitude Longitude Altitude Speed Heading
2026-05-01 12:56 -37.67354 144.84630 365 ft 0 kts 352°
2026-05-01 13:00 -37.67402 144.84641 362 ft 4 kts 343°
2026-05-01 13:00 -37.67426 144.84654 364 ft 4 kts 324°
2026-05-01 13:01 -37.67441 144.84679 365 ft 1 kts 261°
2026-05-01 13:07 -37.67866 144.84167 359 ft 6 kts 261°
2026-05-01 13:07 -37.67873 144.84109 358 ft 0 kts 262°
2026-05-01 13:08 -37.67873 144.84106 354 ft 1 kts 262°
2026-05-01 13:08 -37.67876 144.84079 354 ft 4 kts 268°
2026-05-01 13:08 -37.67826 144.83973 362 ft 17 kts 323°
2026-05-01 13:09 -37.67773 144.83948 364 ft 0 kts 351°
2026-05-01 13:09 -37.67558 144.83909 371 ft 72 kts 352°
2026-05-01 13:09 -37.66800 144.83773 408 ft 142 kts 353°
2026-05-01 13:09 -37.65751 144.83591 914 ft 160 kts 352°
2026-05-01 13:10 -37.64606 144.83370 1590 ft 171 kts 353°
2026-05-01 13:10 -37.63417 144.83090 2327 ft 176 kts 354°
2026-05-01 13:10 -37.62209 144.82830 3004 ft 180 kts 356°
2026-05-01 13:10 -37.60940 144.82604 3566 ft 194 kts 356°
2026-05-01 13:11 -37.59493 144.82501 3948 ft 219 kts
2026-05-01 13:11 -37.57935 144.82995 4558 ft 235 kts 20°
2026-05-01 13:11 -37.56351 144.83889 5146 ft 258 kts 23°
2026-05-01 13:11 -37.54715 144.84900 6384 ft 261 kts 23°
2026-05-01 13:12 -37.53135 144.85896 7724 ft 245 kts 22°
2026-05-01 13:12 -37.51590 144.86852 8438 ft 252 kts 22°
2026-05-01 13:12 -37.49975 144.87834 9046 ft 262 kts 22°
2026-05-01 13:12 -37.48312 144.88843 9745 ft 269 kts 22°
2026-05-01 13:13 -37.46603 144.89880 10334 ft 280 kts 22°
2026-05-01 13:13 -37.44817 144.91111 10864 ft 303 kts 30°
2026-05-01 13:13 -37.43165 144.92821 11906 ft 312 kts 42°
2026-05-01 13:13 -37.41769 144.94950 12991 ft 318 kts 50°
2026-05-01 13:14 -37.40471 144.97228 14047 ft 323 kts 52°
2026-05-01 13:14 -37.39171 144.99561 14944 ft 328 kts 52°
2026-05-01 13:14 -37.37846 145.01934 15810 ft 334 kts 51°
2026-05-01 13:14 -37.36495 145.04340 16713 ft 340 kts 51°
2026-05-01 13:15 -37.35136 145.06753 17613 ft 345 kts 51°
2026-05-01 13:15 -37.33737 145.09230 18523 ft 350 kts 51°
2026-05-01 13:15 -37.32316 145.11740 19317 ft 355 kts 51°
2026-05-01 13:15 -37.30872 145.14288 20108 ft 360 kts 51°
2026-05-01 13:16 -37.29410 145.16867 20908 ft 364 kts 51°
2026-05-01 13:16 -37.27928 145.19477 21692 ft 369 kts 50°
2026-05-01 13:16 -37.26429 145.22114 22479 ft 373 kts 50°
2026-05-01 13:17 -37.21819 145.30215 24619 ft 387 kts 50°
2026-05-01 13:17 -37.20244 145.32978 25240 ft 391 kts 50°
2026-05-01 13:18 -37.17044 145.38586 26436 ft 399 kts 50°
2026-05-01 13:18 -37.15420 145.41426 27007 ft 402 kts 50°
2026-05-01 13:18 -37.13782 145.44287 27534 ft 406 kts 50°
2026-05-01 13:18 -37.12120 145.47185 28043 ft 411 kts 50°
2026-05-01 13:19 -37.10443 145.50108 28581 ft 414 kts 50°
2026-05-01 13:19 -37.08755 145.53046 29102 ft 418 kts 50°
2026-05-01 13:19 -37.05319 145.59021 30091 ft 426 kts 50°
2026-05-01 13:20 -37.03580 145.62041 30551 ft 429 kts 50°
2026-05-01 13:20 -37.01814 145.65106 31060 ft 429 kts 50°
2026-05-01 13:20 -37.00064 145.68144 31585 ft 429 kts 50°
2026-05-01 13:21 -36.96515 145.74292 32672 ft 428 kts 50°
2026-05-01 13:21 -36.94772 145.77308 33197 ft 427 kts 50°
2026-05-01 13:21 -36.93056 145.80273 33731 ft 425 kts 50°
2026-05-01 13:21 -36.91327 145.83259 34334 ft 422 kts 50°
2026-05-01 13:22 -36.89606 145.86226 34782 ft 421 kts 50°
2026-05-01 13:22 -36.87883 145.89194 35133 ft 423 kts 50°
2026-05-01 13:22 -36.86140 145.92187 35261 ft 427 kts 50°
2026-05-01 13:22 -36.84396 145.95184 35272 ft 427 kts 50°
2026-05-01 13:23 -36.80906 146.01165 35272 ft 426 kts 50°
2026-05-01 13:23 -36.79134 146.04189 35279 ft 437 kts 50°
2026-05-01 13:23 -36.77319 146.07293 35274 ft 447 kts 50°
2026-05-01 13:24 -36.75468 146.10463 35277 ft 458 kts 50°
2026-05-01 13:24 -36.73575 146.13703 35284 ft 465 kts 50°
2026-05-01 13:25 -36.67873 146.23461 35286 ft 466 kts 50°
2026-05-01 13:25 -36.64046 146.29989 35284 ft 466 kts 50°
2026-05-01 13:26 -36.60213 146.36505 35286 ft 467 kts 50°
2026-05-01 13:26 -36.56367 146.43028 35282 ft 467 kts 50°
2026-05-01 13:27 -36.52519 146.49546 35279 ft 467 kts 50°
2026-05-01 13:27 -36.46737 146.59312 35285 ft 468 kts 50°
2026-05-01 13:28 -36.40926 146.69100 35285 ft 469 kts 50°
2026-05-01 13:29 -36.33189 146.82090 35288 ft 470 kts 50°
2026-05-01 13:31 -36.21507 147.01610 35293 ft 470 kts 50°
2026-05-01 13:32 -36.11730 147.17858 35298 ft 471 kts 50°
2026-05-01 13:33 -36.01943 147.34045 35313 ft 472 kts 50°
2026-05-01 13:34 -35.94067 147.47020 35313 ft 472 kts 50°
2026-05-01 13:35 -35.88147 147.56730 35320 ft 472 kts 50°
2026-05-01 13:36 -35.82221 147.66437 35324 ft 472 kts 50°
2026-05-01 13:36 -35.76282 147.76133 35331 ft 473 kts 50°
2026-05-01 13:37 -35.72979 147.81514 35328 ft 473 kts 50°
2026-05-01 13:37 -35.68335 147.89064 35338 ft 473 kts 50°
2026-05-01 13:38 -35.62390 147.98705 35346 ft 474 kts 50°
2026-05-01 13:39 -35.58396 148.05168 35357 ft 475 kts 50°
2026-05-01 13:39 -35.54398 148.11625 35350 ft 475 kts 50°
2026-05-01 13:40 -35.50396 148.18075 35347 ft 475 kts 50°
2026-05-01 13:40 -35.46387 148.24522 35356 ft 476 kts 50°
2026-05-01 13:41 -35.43039 148.29899 35368 ft 477 kts 50°
2026-05-01 13:41 -35.39012 148.36359 35357 ft 477 kts 50°
2026-05-01 13:42 -35.34977 148.42818 35365 ft 477 kts 50°
2026-05-01 13:42 -35.30942 148.49265 35369 ft 477 kts 50°
2026-05-01 13:43 -35.26886 148.55734 35364 ft 479 kts 50°
2026-05-01 13:43 -35.22823 148.62200 35373 ft 479 kts 50°
2026-05-01 13:44 -35.18781 148.68621 35367 ft 480 kts 50°
2026-05-01 13:44 -35.14700 148.75088 35376 ft 480 kts 50°
2026-05-01 13:45 -35.10619 148.81551 35378 ft 481 kts 50°
2026-05-01 13:45 -35.06523 148.88023 35364 ft 482 kts 50°
2026-05-01 13:46 -35.02419 148.94496 35374 ft 482 kts 50°
2026-05-01 13:46 -34.98309 149.00965 35373 ft 482 kts 50°
2026-05-01 13:47 -34.94195 149.07429 35370 ft 483 kts 50°
2026-05-01 13:47 -34.90067 149.13903 35364 ft 484 kts 50°
2026-05-01 13:48 -34.85923 149.20391 35369 ft 485 kts 50°
2026-05-01 13:48 -34.81801 149.26832 35366 ft 485 kts 50°
2026-05-01 13:49 -34.77623 149.33350 35361 ft 485 kts 50°
2026-05-01 13:49 -34.73677 149.40014 35300 ft 487 kts 59°
2026-05-01 13:49 -34.72047 149.43586 34936 ft 479 kts 59°
2026-05-01 13:50 -34.70464 149.47101 34692 ft 468 kts 60°
2026-05-01 13:50 -34.68943 149.50550 34455 ft 458 kts 60°
2026-05-01 13:50 -34.67458 149.53953 34025 ft 452 kts 60°
2026-05-01 13:50 -34.65995 149.57319 33509 ft 448 kts 60°
2026-05-01 13:51 -34.64541 149.60657 32960 ft 446 kts 60°
2026-05-01 13:51 -34.63092 149.63980 32362 ft 445 kts 60°
2026-05-01 13:51 -34.61644 149.67294 31843 ft 441 kts 60°
2026-05-01 13:51 -34.60212 149.70562 31407 ft 436 kts 60°
2026-05-01 13:52 -34.58794 149.73793 30957 ft 431 kts 61°
2026-05-01 13:52 -34.57389 149.76991 30503 ft 427 kts 61°
2026-05-01 13:52 -34.55998 149.80152 29983 ft 423 kts 60°
2026-05-01 13:52 -34.54619 149.83285 29462 ft 419 kts 60°
2026-05-01 13:53 -34.53251 149.86390 28951 ft 415 kts 60°
2026-05-01 13:53 -34.50554 149.92502 27962 ft 407 kts 60°
2026-05-01 13:53 -34.49224 149.95511 27494 ft 403 kts 60°
2026-05-01 13:54 -34.47905 149.98493 27035 ft 399 kts 60°
2026-05-01 13:54 -34.46601 150.01439 26583 ft 395 kts 60°
2026-05-01 13:54 -34.45308 150.04356 26144 ft 391 kts 60°
2026-05-01 13:54 -34.44026 150.07247 25706 ft 387 kts 60°
2026-05-01 13:55 -34.42759 150.10104 25290 ft 383 kts 60°
2026-05-01 13:55 -34.41513 150.12909 24823 ft 381 kts 60°
2026-05-01 13:55 -34.40253 150.15743 24199 ft 383 kts 60°
2026-05-01 13:55 -34.38986 150.18589 23519 ft 384 kts 59°
2026-05-01 13:56 -34.37716 150.21441 22809 ft 385 kts 60°
2026-05-01 13:56 -34.36446 150.24291 22163 ft 384 kts 60°
2026-05-01 13:56 -34.35186 150.27118 21624 ft 380 kts 60°
2026-05-01 13:56 -34.33936 150.29917 21092 ft 376 kts 60°
2026-05-01 13:57 -34.32699 150.32688 20580 ft 372 kts 60°
2026-05-01 13:57 -34.31473 150.35430 20082 ft 368 kts 60°
2026-05-01 13:57 -34.30261 150.38139 19579 ft 364 kts 60°
2026-05-01 13:57 -34.29058 150.40827 19092 ft 361 kts 60°
2026-05-01 13:58 -34.27869 150.43482 18598 ft 358 kts 60°
2026-05-01 13:58 -34.26688 150.46123 18050 ft 354 kts 60°
2026-05-01 13:58 -34.25521 150.48733 17504 ft 351 kts 60°
2026-05-01 13:58 -34.24368 150.51314 16973 ft 347 kts 60°
2026-05-01 13:59 -34.23225 150.53868 16448 ft 344 kts 60°
2026-05-01 13:59 -34.22093 150.56395 15961 ft 340 kts 60°
2026-05-01 13:59 -34.20986 150.58866 15723 ft 328 kts 60°
2026-05-01 13:59 -34.19914 150.61257 15423 ft 319 kts 60°
2026-05-01 14:00 -34.18855 150.63618 14876 ft 320 kts 60°
2026-05-01 14:00 -34.17774 150.66021 14286 ft 322 kts 60°
2026-05-01 14:00 -34.16704 150.68400 13654 ft 323 kts 60°
2026-05-01 14:00 -34.15648 150.70744 13005 ft 320 kts 60°
2026-05-01 14:01 -34.14583 150.73113 12342 ft 312 kts 60°
2026-05-01 14:01 -34.13557 150.75391 11627 ft 307 kts 60°
2026-05-01 14:01 -34.12540 150.77647 10870 ft 304 kts 60°
2026-05-01 14:01 -34.11532 150.79883 10122 ft 301 kts 60°
2026-05-01 14:02 -34.10496 150.82051 9353 ft 295 kts 52°
2026-05-01 14:02 -34.09223 150.83973 8636 ft 288 kts 49°
2026-05-01 14:02 -34.07960 150.85759 8192 ft 273 kts 46°
2026-05-01 14:02 -34.06712 150.87410 7799 ft 259 kts 45°
2026-05-01 14:03 -34.05508 150.88953 7457 ft 246 kts 44°
2026-05-01 14:03 -34.04352 150.90416 7078 ft 237 kts 44°
2026-05-01 14:03 -34.03229 150.91833 6680 ft 230 kts 44°
2026-05-01 14:03 -34.02138 150.93214 6186 ft 225 kts 45°
2026-05-01 14:04 -34.01070 150.94570 5588 ft 220 kts 45°
2026-05-01 14:04 -34.00048 150.95874 5314 ft 203 kts 45°
2026-05-01 14:04 -33.99182 150.97119 5078 ft 189 kts 54°
2026-05-01 14:04 -33.98772 150.98019 4836 ft 182 kts 64°
2026-05-01 14:05 -33.98245 150.99844 4426 ft 161 kts 73°
2026-05-01 14:05 -33.98055 151.01119 4133 ft 148 kts 75°
2026-05-01 14:05 -33.97842 151.02308 3774 ft 144 kts 71°
2026-05-01 14:05 -33.97568 151.03470 3327 ft 143 kts 71°
2026-05-01 14:06 -33.97278 151.04578 2904 ft 141 kts 68°
2026-05-01 14:06 -33.96950 151.05709 2445 ft 143 kts 69°
2026-05-01 14:06 -33.96628 151.06837 2068 ft 139 kts 70°
2026-05-01 14:06 -33.96372 151.07916 1731 ft 133 kts 73°
2026-05-01 14:07 -33.96145 151.08968 1467 ft 126 kts 72°
2026-05-01 14:07 -33.95931 151.09971 1192 ft 119 kts 71°
2026-05-01 14:07 -33.95689 151.10901 986 ft 115 kts 71°
2026-05-01 14:08 -33.95241 151.12818 615 ft 124 kts 72°
2026-05-01 14:08 -33.94990 151.13825 486 ft 129 kts 71°
2026-05-01 14:08 -33.94755 151.14881 363 ft 129 kts 73°
2026-05-01 14:08 -33.94485 151.15940 151 ft 132 kts 69°
2026-05-01 14:09 -33.94234 151.16980 29 ft 121 kts 73°
2026-05-01 14:09 -33.94047 151.17758 28 ft 65 kts 72°
2026-05-01 14:09 -33.93965 151.18104 29 ft 40 kts 74°
2026-05-01 14:09 -33.93910 151.18265 31 ft 8 kts 30°
2026-05-01 14:10 -33.93858 151.18266 31 ft 5 kts 349°
2026-05-01 14:10 -33.93754 151.18236 33 ft 14 kts 345°
2026-05-01 14:10 -33.93681 151.18211 33 ft 6 kts 341°
2026-05-01 14:10 -33.93671 151.18204 34 ft 1 kts 314°
2026-05-01 14:11 -33.93665 151.18188 34 ft 1 kts 288°
2026-05-01 14:11 -33.93664 151.18173 34 ft 0 kts 278°